Change the Weather History Date:

Monday, March 26, 2012

  Actual Average Record
Temperature  
Mean Temperature 66 °F 67 °F  
Max Temperature 74 °F 79 °F 100 °F (1988)
Min Temperature 57 °F 55 °F 35 °F (1913)
Degree Days  
Heating Degree Days 0 2  
Month to date heating degree days 72 74  
Since 1 July heating degree days 829 907  
Cooling Degree Days 1 4  
Month to date cooling degree days 66 65  
Year to date cooling degree days 78 82  
Growing Degree Days 15 (Base 50)    
Moisture  
Dew Point 38 °F    
Average Humidity 38    
Maximum Humidity 57    
Minimum Humidity 19    
Precipitation  
Precipitation 0.00 in 0.03 in 1.19 in (1989)
Month to date precipitation 0.25 0.89  
Year to date precipitation 0.25 2.72  
Snow  
Snow 0.00 in - - ()
Month to date snowfall 0.0  
Year to date snowfall 0.0  
Since 1 July snowfall 0.0  
Snow Depth 0.00 in    
Sea Level Pressure  
Sea Level Pressure 29.95 in    
Wind  
Wind Speed 4 mph (WNW)    
Max Wind Speed 16 mph    
Max Gust Speed 21 mph    
Visibility 10 miles    
Events      
T = Trace of Precipitation, MM = Missing Value Source: NWS Daily Summary

Daily Weather History Graph

Daily Weather History Graph

Search for Another Location

Airport or City:

Trip Planner

Search our weather history database for the weather conditions in past years. The results will help you decide how hot, cold, wet, or windy it might be!

Date:

Astronomy

Mar. 26, 2012 Rise Set
Actual Time 6:22 AM MST 6:44 PM MST
Civil Twilight 5:58 AM MST 7:09 PM MST
Nautical Twilight 5:28 AM MST 7:38 PM MST
Astronomical Twilight 4:59 AM MST 8:08 PM MST
Moon 8:27 AM MST (3/26) 10:44 PM MST (3/26)
Length of Visible Light 13h 11m
Length of Day
12h 21m
Waxing Crescent, 15% of the Moon is Illuminated
Mar 26
Waxing Crescent
Mar 30
First Quarter
Apr 6
Full
Apr 13
Last Quarter
Apr 21
New

Hourly Weather History & Observations

Time (MST) Temp. Dew Point Humidity Pressure Visibility Wind Dir Wind Speed Gust Speed Precip Events Conditions
12:51 AM 64.9 °F 39.9 °F 40% 29.87 in 10.0 mi WNW 11.5 mph - N/A   Scattered Clouds
1:51 AM 63.0 °F 39.9 °F 43% 29.88 in 10.0 mi WNW 6.9 mph - N/A   Partly Cloudy
2:51 AM 62.1 °F 39.9 °F 44% 29.90 in 10.0 mi Calm Calm - N/A   Partly Cloudy
3:51 AM 61.0 °F 41.0 °F 48% 29.91 in 10.0 mi Calm Calm - N/A   Partly Cloudy
4:51 AM 60.1 °F 39.9 °F 47% 29.93 in 10.0 mi North 6.9 mph - N/A   Partly Cloudy
5:51 AM 59.0 °F 41.0 °F 51% 29.96 in 10.0 mi WNW 8.1 mph - N/A   Partly Cloudy
6:51 AM 57.0 °F 42.1 °F 57% 30.00 in 10.0 mi WNW 5.8 mph - N/A   Partly Cloudy
7:51 AM 59.0 °F 43.0 °F 55% 30.01 in 10.0 mi Calm Calm - N/A   Partly Cloudy
8:51 AM 61.0 °F 44.1 °F 54% 30.03 in 10.0 mi Calm Calm - N/A   Clear
9:51 AM 63.0 °F 44.1 °F 50% 30.03 in 10.0 mi NNW 5.8 mph - N/A   Partly Cloudy
10:51 AM 64.9 °F 44.1 °F 47% 30.03 in 10.0 mi Variable 4.6 mph - N/A   Partly Cloudy
11:51 AM 68.0 °F 43.0 °F 40% 30.00 in 10.0 mi SW 3.5 mph - N/A   Partly Cloudy
12:51 PM 69.1 °F 41.0 °F 36% 29.98 in 10.0 mi WNW 6.9 mph - N/A   Partly Cloudy
1:51 PM 70.0 °F 37.9 °F 31% 29.95 in 10.0 mi Calm Calm - N/A   Partly Cloudy
2:51 PM 72.0 °F 34.0 °F 25% 29.94 in 10.0 mi Calm Calm - N/A   Clear
3:51 PM 73.0 °F 30.0 °F 20% 29.93 in 10.0 mi Calm Calm - N/A   Clear
4:51 PM 73.0 °F 28.9 °F 20% 29.92 in 10.0 mi West 8.1 mph - N/A   Clear
5:51 PM 73.0 °F 32.0 °F 22% 29.92 in 10.0 mi West 10.4 mph - N/A   Clear
6:51 PM 71.1 °F 33.1 °F 25% 29.93 in 10.0 mi WSW 8.1 mph - N/A   Clear
7:51 PM 71.1 °F 30.9 °F 23% 29.93 in 10.0 mi WNW 6.9 mph - N/A   Clear
8:51 PM 70.0 °F 32.0 °F 25% 29.95 in 10.0 mi WNW 6.9 mph - N/A   Clear
9:51 PM 68.0 °F 33.1 °F 27% 29.96 in 10.0 mi North 3.5 mph - N/A   Clear
10:51 PM 64.9 °F 35.1 °F 33% 29.95 in 10.0 mi Calm Calm - N/A   Clear
11:51 PM 66.0 °F 34.0 °F 30% 29.95 in 10.0 mi Calm Calm - N/A   Clear